• In Hungary
  • List of Countries
  • For 7 days
  • Water Temperature
  • Satellite Maps
  • Weather Map
  • News
  • Weather Widgets
  • user-avatar
    Login

    Hourly Weather Lauga

    Today, 20 June, Wednesday

    Time Temperature Precipitation Wind Pressure Humidity
    00:00 +13°C° 0 mm 4 mps 737 mmHg 93%
    01:00 +12°C° 0 mm 4 mps 738 mmHg 93%
    02:00 +11°C° 0 mm 3 mps 738 mmHg 94%
    03:00 +11°C° 0 mm 3 mps 738 mmHg 93%
    04:00 +11°C° 0 mm 4 mps 738 mmHg 92%
    05:00 +11°C° 0 mm 4 mps 738 mmHg 90%
    06:00 +13°C° 0 mm 4 mps 738 mmHg 79%
    07:00 +14°C° 0 mm 5 mps 738 mmHg 68%
    08:00 +16°C° 0 mm 5 mps 738 mmHg 56%
    09:00 +17°C° 0 mm 6 mps 738 mmHg 51%
    10:00 +19°C° 0 mm 6 mps 738 mmHg 47%
    11:00 +20°C° 0 mm 6 mps 738 mmHg 42%
    12:00 +21°C° 0 mm 6 mps 738 mmHg 41%
    13:00 +21°C° 0 mm 6 mps 738 mmHg 41%
    14:00 +21°C° 0 mm 6 mps 738 mmHg 40%
    15:00 +21°C° 0 mm 5 mps 738 mmHg 43%
    16:00 +20°C° 0 mm 5 mps 738 mmHg 46%
    17:00 +20°C° 0 mm 4 mps 738 mmHg 48%
    18:00 +19°C° 0 mm 4 mps 738 mmHg 54%
    19:00 +17°C° 0 mm 3 mps 739 mmHg 60%
    20:00 +16°C° 0 mm 3 mps 739 mmHg 66%
    21:00 +15°C° 0 mm 2 mps 739 mmHg 69%
    22:00 +14°C° 0 mm 2 mps 739 mmHg 71%
    23:00 +13°C° 0 mm 2 mps 739 mmHg 73%

    Tomorrow, 21 June, Thursday

    Time Temperature Precipitation Wind Pressure Humidity
    00:00 +12°C° 0 mm 2 mps 739 mmHg 75%
    01:00 +10°C° 0 mm 2 mps 739 mmHg 77%
    02:00 +10°C° 0 mm 2 mps 740 mmHg 79%
    03:00 +10°C° 0 mm 2 mps 739 mmHg 79%
    04:00 +12°C° 0 mm 2 mps 739 mmHg 78%
    05:00 +11°C° 0 mm 3 mps 739 mmHg 78%
    06:00 +13°C° 0 mm 3 mps 739 mmHg 75%
    07:00 +15°C° 0 mm 4 mps 739 mmHg 71%
    08:00 +17°C° 0 mm 4 mps 739 mmHg 68%
    09:00 +19°C° 0 mm 4 mps 739 mmHg 66%
    10:00 +20°C° 0 mm 5 mps 738 mmHg 64%
    11:00 +21°C° 0 mm 5 mps 738 mmHg 62%
    12:00 +22°C° 0 mm 5 mps 738 mmHg 59%
    13:00 +23°C° 0 mm 5 mps 738 mmHg 56%
    14:00 +25°C° 0 mm 5 mps 737 mmHg 53%
    15:00 +25°C° 0.2 mm 4 mps 737 mmHg 56%
    16:00 +25°C° 0.2 mm 4 mps 737 mmHg 59%
    17:00 +25°C° 0.2 mm 3 mps 736 mmHg 62%
    18:00 +22°C° 0.1 mm 3 mps 736 mmHg 67%
    19:00 +21°C° 0.1 mm 3 mps 736 mmHg 73%
    20:00 +20°C° 0.1 mm 3 mps 735 mmHg 78%
    21:00 +19°C° 0 mm 3 mps 735 mmHg 80%
    22:00 +19°C° 0 mm 3 mps 735 mmHg 81%
    23:00 +18°C° 0 mm 4 mps 735 mmHg 83%

    Day after tomorrow, 22 June, Friday

    Time Temperature Precipitation Wind Pressure Humidity
    00:00 +18°C° 0 mm 4 mps 734 mmHg 84%
    01:00 +18°C° 0 mm 4 mps 734 mmHg 86%
    02:00 +18°C° 0 mm 4 mps 733 mmHg 87%
    03:00 +18°C° 0.2 mm 4 mps 733 mmHg 87%
    04:00 +17°C° 0.2 mm 5 mps 732 mmHg 86%
    05:00 +17°C° 0.2 mm 5 mps 732 mmHg 86%
    06:00 +17°C° 0.3 mm 5 mps 731 mmHg 88%
    07:00 +19°C° 0.3 mm 5 mps 731 mmHg 90%
    08:00 +19°C° 0.3 mm 5 mps 730 mmHg 92%
    09:00 +19°C° 0.9 mm 5 mps 730 mmHg 92%
    10:00 +19°C° 0.9 mm 6 mps 731 mmHg 91%
    11:00 +19°C° 0.9 mm 6 mps 731 mmHg 91%
    12:00 +16°C° 0.7 mm 5 mps 731 mmHg 92%
    13:00 +14°C° 0.7 mm 4 mps 732 mmHg 94%
    14:00 +12°C° 0.7 mm 3 mps 732 mmHg 95%
    15:00 +12°C° 0.2 mm 3 mps 733 mmHg 95%
    16:00 +12°C° 0.2 mm 3 mps 733 mmHg 94%
    17:00 +12°C° 0.2 mm 3 mps 733 mmHg 94%
    18:00 +12°C° 0 mm 3 mps 734 mmHg 93%
    19:00 +12°C° 0 mm 3 mps 734 mmHg 93%
    20:00 +12°C° 0 mm 3 mps 735 mmHg 92%
    21:00 +12°C° 0 mm 3 mps 735 mmHg 92%
    22:00 +11°C° 0 mm 3 mps 735 mmHg 93%
    23:00 +11°C° 0 mm 3 mps 735 mmHg 93%

    23 June, Saturday

    Time Temperature Precipitation Wind Pressure Humidity
    00:00 +11°C° 0 mm 3 mps 736 mmHg 92%
    01:00 +10°C° 0 mm 2 mps 736 mmHg 92%
    02:00 +10°C° 0 mm 2 mps 736 mmHg 91%
    03:00 +10°C° 0 mm 2 mps 736 mmHg 90%
    04:00 +10°C° 0 mm 2 mps 737 mmHg 89%
    05:00 +10°C° 0 mm 2 mps 737 mmHg 89%
    06:00 +12°C° 0 mm 2 mps 737 mmHg 83%
    07:00 +13°C° 0 mm 2 mps 737 mmHg 77%
    08:00 +14°C° 0 mm 2 mps 738 mmHg 72%
    09:00 +15°C° 0 mm 2 mps 738 mmHg 67%
    10:00 +16°C° 0 mm 2 mps 738 mmHg 61%
    11:00 +17°C° 0 mm 2 mps 738 mmHg 56%
    12:00 +17°C° 0 mm 2 mps 737 mmHg 55%
    13:00 +18°C° 0 mm 2 mps 737 mmHg 53%
    14:00 +19°C° 0 mm 1 mps 737 mmHg 51%
    15:00 +19°C° 0 mm 1 mps 737 mmHg 55%
    16:00 +19°C° 0 mm 1 mps 737 mmHg 59%
    17:00 +18°C° 0 mm 1 mps 737 mmHg 62%
    18:00 +16°C° 0.1 mm 1 mps 736 mmHg 70%
    19:00 +15°C° 0.1 mm 1 mps 736 mmHg 77%
    20:00 +14°C° 0.1 mm 1 mps 736 mmHg 85%
    21:00 +13°C° 0.1 mm 1 mps 736 mmHg 88%
    22:00 +12°C° 0.1 mm 1 mps 736 mmHg 91%
    23:00 +12°C° 0.1 mm 1 mps 736 mmHg 94%

    24 June, Sunday

    Time Temperature Precipitation Wind Pressure Humidity
    00:00 +12°C° 0.1 mm 1 mps 735 mmHg 94%
    01:00 +11°C° 0.1 mm 1 mps 735 mmHg 94%
    02:00 +11°C° 0.1 mm 1 mps 735 mmHg 94%
    03:00 +11°C° 0.2 mm 1 mps 735 mmHg 93%
    04:00 +12°C° 0.2 mm 1 mps 735 mmHg 93%
    05:00 +12°C° 0.2 mm 1 mps 735 mmHg 92%
    06:00 +13°C° 0.5 mm 1 mps 735 mmHg 90%
    07:00 +14°C° 0.5 mm 1 mps 735 mmHg 88%
    08:00 +15°C° 0.5 mm 1 mps 735 mmHg 86%
    09:00 +15°C° 0.7 mm 1 mps 735 mmHg 84%
    10:00 +15°C° 0.7 mm 1 mps 735 mmHg 83%
    11:00 +16°C° 0.7 mm 1 mps 735 mmHg 81%
    12:00 +16°C° 0.5 mm 2 mps 736 mmHg 78%
    13:00 +17°C° 0.5 mm 2 mps 736 mmHg 74%
    14:00 +17°C° 0.5 mm 2 mps 736 mmHg 71%
    15:00 +17°C° 0.6 mm 2 mps 736 mmHg 75%
    16:00 +16°C° 0.6 mm 2 mps 736 mmHg 79%
    17:00 +16°C° 0.6 mm 2 mps 737 mmHg 84%
    18:00 +15°C° 0.8 mm 2 mps 737 mmHg 87%
    19:00 +14°C° 0.8 mm 2 mps 737 mmHg 90%
    20:00 +13°C° 0.8 mm 2 mps 737 mmHg 94%
    21:00 +12°C° 0.1 mm 2 mps 737 mmHg 95%
    22:00 +12°C° 0.1 mm 2 mps 738 mmHg 96%
    23:00 +10°C° 0.1 mm 2 mps 738 mmHg 98%

    25 June, Monday

    Time Temperature Precipitation Wind Pressure Humidity
    00:00 +10°C° 0 mm 2 mps 738 mmHg 98%
    01:00 +9°C° 0 mm 2 mps 738 mmHg 98%
    02:00 +9°C° 0 mm 2 mps 738 mmHg 98%
    03:00 +9°C° 0 mm 2 mps 738 mmHg 98%
    04:00 +9°C° 0 mm 3 mps 739 mmHg 98%
    05:00 +9°C° 0 mm 3 mps 739 mmHg 98%
    06:00 +10°C° 0 mm 3 mps 739 mmHg 97%
    07:00 +10°C° 0 mm 3 mps 739 mmHg 96%
    08:00 +11°C° 0 mm 3 mps 739 mmHg 95%
    09:00 +12°C° 0.1 mm 3 mps 740 mmHg 88%
    10:00 +13°C° 0.1 mm 3 mps 740 mmHg 82%
    11:00 +16°C° 0.1 mm 3 mps 740 mmHg 76%
    12:00 +16°C° 0.7 mm 3 mps 740 mmHg 77%
    13:00 +17°C° 0.7 mm 3 mps 740 mmHg 77%
    14:00 +18°C° 0.7 mm 3 mps 739 mmHg 78%
    15:00 +18°C° 0.4 mm 3 mps 739 mmHg 78%
    16:00 +18°C° 0.4 mm 3 mps 739 mmHg 77%
    17:00 +18°C° 0.4 mm 2 mps 739 mmHg 76%
    18:00 +16°C° 0.3 mm 2 mps 739 mmHg 82%
    19:00 +15°C° 0.3 mm 2 mps 739 mmHg 87%
    20:00 +14°C° 0.3 mm 2 mps 739 mmHg 92%
    21:00 +13°C° 0 mm 2 mps 740 mmHg 94%
    22:00 +12°C° 0 mm 2 mps 740 mmHg 95%
    23:00 +10°C° 0 mm 2 mps 740 mmHg 97%
    Show more